Location: Boiro
(42.6475°N, 8.8834°W)
Time: 06:45:30
(UTC+01:00)

deb Kosmos-2237 - Visible Passes

Search period start: 01 December 2022 00:00
Search period end: 11 December 2022 00:00
Orbit: 840 x 1071 km, 71.0° (Epoch: 30 November)

Date Brightness Start Highest point End Pass type
(mag) Time Alt. Az. Time Alt. Az. Time Alt. Az.
01 Dec ? 06:34:21 10° N 06:40:21 38° ENE 06:46:34 10° SE visible
02 Dec ? 05:09:15 11° NNE 05:12:11 14° NE 05:15:25 10° ENE visible
02 Dec ? 06:53:39 10° NNW 07:00:05 62° ENE 07:06:46 10° SE visible
03 Dec ? 05:28:52 14° N 05:32:20 21° NE 05:37:16 10° E visible
03 Dec ? 07:13:07 10° NNW 07:19:40 84° WSW 07:26:28 10° SSE visible
04 Dec ? 05:48:33 19° N 05:52:18 32° NE 05:58:15 10° ESE visible
04 Dec ? 07:32:49 10° NW 07:39:06 51° WSW 07:45:38 10° S visible
04 Dec ? 21:00:24 10° SSW 21:01:44 18° S 21:01:44 18° S visible
05 Dec ? 04:24:03 12° NE 04:24:03 12° NE 04:26:12 10° ENE visible
05 Dec ? 06:08:19 24° N 06:12:06 51° ENE 06:18:41 10° SE visible
05 Dec ? 07:52:48 10° NW 07:58:25 31° WSW 08:04:12 10° SSW visible
05 Dec ? 19:36:19 10° SE 19:37:39 14° ESE 19:37:39 14° ESE visible
05 Dec ? 21:19:50 10° SSW 21:21:57 24° SW 21:21:57 24° SW visible
06 Dec ? 04:43:54 18° NE 04:44:11 18° NE 04:48:36 10° E visible
06 Dec ? 06:28:12 30° NNW 06:31:44 82° ENE 06:38:34 10° SSE visible
06 Dec ? 08:13:23 10° WNW 08:17:35 18° W 08:21:51 10° SW visible
06 Dec ? 19:53:59 10° SSE 19:57:52 28° ESE 19:57:52 28° ESE visible
06 Dec ? 21:39:46 10° SW 21:42:10 24° WSW 21:42:10 24° WSW visible
07 Dec ? 05:03:52 27° NE 05:04:13 27° NE 05:09:53 10° ESE visible
07 Dec ? 06:48:09 33° NW 06:51:15 63° WSW 06:57:57 10° S visible
07 Dec ? 20:12:36 10° S 20:18:01 54° ESE 20:18:01 54° ESE visible
07 Dec ? 22:00:15 10° WSW 22:02:19 19° W 22:02:19 19° W visible
08 Dec ? 05:23:55 42° NE 05:24:06 43° ENE 05:30:30 10° SE visible
08 Dec ? 07:08:12 29° WNW 07:10:36 38° WSW 07:16:45 10° S visible
08 Dec ? 18:49:34 10° ESE 18:52:01 13° E 18:53:50 11° ENE visible
08 Dec ? 20:31:48 10° SSW 20:37:32 87° WNW 20:38:07 73° NNE visible
08 Dec ? 22:21:24 10° W 22:22:25 13° WNW 22:22:25 13° WNW visible
09 Dec ? 03:59:45 10° ENE 03:59:45 10° ENE 03:59:47 10° ENE visible
09 Dec ? 05:44:03 67° ENE 05:44:03 67° ENE 05:50:36 10° SSE visible
09 Dec ? 07:28:21 21° W 07:29:49 22° W 07:34:51 10° SSW visible
09 Dec ? 19:06:34 10° SSE 19:11:03 24° E 19:13:51 17° ENE visible
09 Dec ? 20:51:32 10° SW 20:57:07 51° WNW 20:58:09 46° NNW visible
10 Dec ? 04:19:57 15° E 04:19:57 15° E 04:21:23 10° E visible
10 Dec ? 06:04:15 66° SSW 06:04:15 66° SSW 06:10:11 10° SSE visible
10 Dec ? 07:48:34 12° W 07:48:53 12° W 07:51:26 10° WSW visible
10 Dec ? 19:24:52 10° S 19:30:14 43° ESE 19:33:48 21° NE visible
10 Dec ? 21:11:47 10° WSW 21:16:54 31° NW 21:18:05 29° NNW visible
